Dewpoint
76 76 76 76 76 76 76 76 74 75 73 73 71 72 72 70 71 70 69 68 68 68 68 68 67 68 67 65 66 64 62 62 60 61 62 63 63 64 63 64 65 64 64
75 76 76 76 77 76 75 76 75 76 74 72 73 72 71 69 70 69 67 65 68 67 68 68 67 64 68 67 67 66 65 65 63 62 63 63 63 65 65 65 63 59 61
74 74 75 75 75 76 76 75 75 75 74 73 72 72 70 68 69 68 68 67 67 66 66 67 66 67 67 68 67 67 66 65 64 62 61 62 62 61 61 62 62 64 63
72 72 73 74 75 74 75 76 75 75 74 74 72 72 70 68 68 67 68 67 67 66 68 68 67 66 67 67 66 67 67 66 64 63 62 62 62 61 62 60 59 62 62
70 72 73 75 75 75 75 75 75 76 75 75 73 71 69 66 65 67 67 67 67 67 66 67 67 67 66 67 67 66 67 65 63 60 59 59 57 60 59 60 59 59 59
69 70 72 74 75 75 75 76 76 76 75 75 71 69 68 64 62 64 67 66 67 67 66 67 68 66 65 64 64 64 66 64 62 60 60 59 58 61 62 60 59 57 55
69 71 72 74 75 75 75 76 76 76 75 73 70 68 66 67 61 62 64 66 66 67 66 68 65 64 66 66 64 63 63 62 61 60 59 60 61 62 61 60 59 58 56
73 72 73 75 75 75 75 75 76 74 73 72 70 67 66 66 60 60 63 64 66 67 66 67 65 66 67 67 66 66 64 63 64 64 62 61 63 64 62 59 58 57 56
71 74 74 77 76 76 75 75 74 73 72 71 69 67 67 67 59 59 61 64 65 65 66 66 66 68 64 61 64 62 62 64 62 60 62 60 56 54 56 58 54 53 51
72 74 77 77 77 75 74 73 72 72 72 71 68 68 65 69 58 57 60 63 64 65 67 67 62 64 60 58 63 63 63 63 63 62 61 59 57 57 56 57 55 53 52
75 75 77 77 76 74 72 72 72 72 73 70 67 67 68 68 67 55 56 64 64 64 63 65 65 58 56 55 55 62 59 56 58 59 58 55 56 57 56 58 59 57 51
76 76 77 75 72 71 72 72 72 71 69 69 68 68 71 71 63 55 55 57 62 64 64 66 62 54 55 55 53 53 52 53 55 55 54 53 54 53 53 54 55 55 54
75 76 75 73 71 71 72 70 69 70 68 67 67 69 69 69 67 57 54 54 55 60 65 57 55 52 54 51 52 52 52 54 53 52 52 54 52 53 55 53 54 54 52
75 73 72 71 72 73 72 70 68 68 67 66 69 69 69 69 67 64 61 60 57 59 56 56 55 55 54 55 55 51 53 55 54 55 53 53 54 51 49 50 47 46 42
72 71 70 70 70 70 63 62 67 59 60 69 71 69 66 66 66 62 62 63 62 59 59 59 56 57 56 55 55 56 55 55 55 55 53 51 49 48 48 48 46 41 41
70 70 70 70 69 66 61 57 46 47 45 46 47 57 58 51 49 47 45 45 47 51 59 61 60 57 55 55 55 54 55 55 55 52 51 49 47 47 46 45 44 45 43
70 71 69 68 69 66 64 62 57 50 44 43 43 44 49 46 43 42 42 42 45 50 59 58 54 56 56 55 54 52 51 53 53 50 49 48 46 45 44 43 43 44 43
70 62 68 67 67 67 67 65 63 59 57 54 45 46 41 41 41 41 42 46 50 50 54 53 53 55 55 53 52 51 51 50 48 47 45 43 43 45 43 42 42 42 41
68 67 66 65 68 66 66 63 61 60 59 54 51 47 43 41 41 43 43 55 53 51 51 52 53 53 53 53 53 53 51 48 45 43 42 42 44 41 41 40 39 40 40
67 62 62 60 60 61 60 58 57 59 57 55 53 51 49 48 50 51 52 54 53 52 54 53 53 53 54 53 53 52 49 46 44 44 44 44 43 42 37 37 37 36 39
60 60 59 59 59 57 56 55 54 53 55 56 54 52 47 53 53 53 53 55 54 54 56 55 55 55 54 53 52 48 43 39 40 42 41 41 42 39 41 40 35 34 34
58 58 59 57 57 58 57 56 54 51 52 54 56 50 45 53 53 55 56 54 55 56 52 55 53 53 50 49 47 43 40 36 39 40 40 39 39 38 39 35 35 34 34
58 53 58 56 56 54 53 53 51 51 51 53 52 50 50 53 56 55 55 55 55 53 52 50 52 49 48 46 41 39 33 34 40 39 39 39 37 37 37 37 35 34 32
60 56 56 56 55 55 54 55 52 48 50 51 53 54 54 54 52 54 54 55 53 53 53 50 48 46 47 43 41 35 35 38 37 35 38 36 35 37 38 37 34 34 32
59 59 57 56 56 55 52 49 50 49 51 50 49 51 52 53 52 52 52 53 52 52 51 50 49 47 45 43 38 29 27 29 32 29 32 37 36 39 39 34 35 32 34
59 58 56 54 54 53 53 51 49 50 49 51 50 50 52 52 51 51 52 51 51 50 50 49 48 46 44 40 36 27 26 28 31 29 30 32 33 37 37 36 35 32 34
Lifted_Index
-9 -9 -9 -9 -9 -9 -9 -9 -8 -7 -7 -6 -5 -5 -5 -4 -4 -3 -2 -1 -1 -1 -1 -1 -1 -1 -1 -2 -2 -1 -1 -0 0 0 1 1 1 1 1 1 2 3 3
-8 -8 -8 -9 -9 -9 -9 -9 -9 -8 -7 -6 -6 -6 -5 -4 -4 -3 -2 -1 -1 -1 -1 -1 -1 -1 -2 -2 -2 -2 -2 -1 -1 -0 -0 0 0 1 1 1 1 2 3
-8 -8 -8 -8 -9 -9 -9 -9 -9 -9 -8 -7 -7 -6 -5 -4 -3 -3 -3 -2 -1 -1 -1 -1 -1 -1 -1 -2 -2 -2 -2 -2 -1 -1 -1 -0 -0 0 0 1 1 1 2
-8 -8 -8 -8 -9 -9 -10 -10 -9 -9 -9 -8 -7 -6 -5 -4 -3 -3 -3 -2 -2 -1 -1 -1 -1 -1 -1 -2 -2 -2 -2 -2 -1 -0 -0 -0 -0 -0 0 1 1 1 1
-7 -8 -8 -9 -9 -9 -10 -10 -10 -10 -9 -8 -7 -6 -5 -3 -3 -3 -3 -2 -2 -1 -1 -1 -1 -1 -1 -1 -1 -1 -1 -1 -0 0 1 1 0 0 1 1 1 1 1
-7 -7 -8 -9 -10 -10 -10 -10 -10 -10 -9 -8 -7 -5 -4 -3 -3 -2 -3 -2 -2 -2 -1 -1 -1 -1 -1 -1 -1 -1 -0 0 1 1 1 1 1 0 0 1 1 1 1
-7 -8 -8 -9 -10 -10 -10 -10 -10 -10 -9 -8 -7 -5 -3 -2 -2 -2 -2 -2 -2 -2 -1 -1 -1 -1 -1 -1 -1 -0 0 1 1 1 1 1 -0 -0 -0 0 1 1 1
-9 -9 -9 -10 -11 -10 -10 -10 -9 -9 -8 -8 -7 -5 -3 -2 -1 -1 -1 -1 -1 -2 -2 -1 -1 -2 -2 -2 -1 -0 0 0 -0 0 0 -0 -1 -1 0 1 2 2 2
-10 -10 -10 -11 -11 -10 -10 -9 -9 -8 -8 -8 -7 -5 -4 -3 -2 -1 -1 -1 -1 -1 -2 -1 -2 -2 -2 -1 -1 -0 -0 -1 -1 -1 -0 -0 -1 -0 1 2 2 2 2
-10 -11 -11 -11 -11 -10 -9 -9 -8 -8 -8 -7 -6 -5 -4 -3 -2 -2 -2 -1 -1 -1 -2 -2 -2 -2 -2 -1 0 -0 -1 -1 -1 -1 -0 0 0 1 1 2 2 2 2
-11 -11 -12 -11 -10 -9 -9 -8 -8 -7 -7 -6 -5 -5 -4 -4 -3 -3 -2 -2 -2 -2 -2 -2 -2 -2 -1 -0 0 -0 -0 0 1 1 1 1 1 1 1 1 1 2 2
-11 -11 -11 -10 -9 -8 -8 -7 -7 -7 -6 -5 -5 -5 -5 -4 -3 -3 -2 -2 -2 -2 -2 -2 -2 -1 -1 -0 -0 0 1 2 2 2 2 1 1 1 2 2 3 3 4
-10 -10 -10 -9 -8 -8 -7 -7 -6 -6 -6 -5 -5 -5 -4 -4 -3 -3 -2 -2 -1 -1 -2 -2 -1 -0 -0 -0 -0 1 2 3 3 3 2 2 2 2 3 4 4 5 5
-9 -9 -8 -8 -7 -7 -7 -6 -6 -5 -5 -5 -5 -4 -4 -4 -3 -3 -2 -2 -1 -1 -1 -1 -0 -0 0 0 1 1 2 2 2 2 2 3 3 4 4 5 6 6 7
-8 -7 -7 -7 -7 -7 -6 -5 -5 -4 -4 -4 -4 -4 -3 -3 -3 -2 -2 -1 -1 -1 -1 -0 -0 0 0 1 1 2 2 2 2 2 3 4 4 5 6 6 7 7 7
-7 -7 -6 -6 -6 -5 -5 -4 -4 -3 -3 -3 -3 -2 -2 -2 -2 -2 -1 -1 -1 -1 -0 -0 -0 0 0 1 2 2 2 2 3 3 4 5 5 6 6 7 7 7 7
-7 -6 -6 -6 -6 -5 -4 -3 -3 -3 -2 -2 -1 -0 0 0 0 -0 -0 -0 -0 0 0 0 1 1 1 2 3 3 3 4 4 5 6 6 6 7 7 7 7 7 7
-7 -6 -6 -6 -6 -5 -4 -4 -3 -2 -1 -1 0 1 2 1 1 1 0 0 1 1 2 1 1 2 2 3 3 4 4 5 5 6 7 7 7 7 7 7 7 7 7
-6 -6 -5 -5 -5 -5 -4 -3 -2 -1 -1 0 1 2 2 2 1 1 1 1 2 2 2 2 2 3 3 4 4 5 5 6 7 7 8 7 7 7 7 7 7 7 7
-5 -5 -4 -4 -4 -3 -3 -2 -1 -1 -0 0 1 1 1 1 2 1 1 1 1 1 1 2 2 3 3 4 5 6 6 7 8 8 8 8 8 8 8 8 8 7 7
-3 -3 -3 -3 -2 -2 -1 -1 -0 -0 0 1 1 0 1 1 1 1 1 1 1 1 2 2 3 3 4 5 6 7 8 9 9 8 8 8 8 8 8 8 8 7 7
-2 -2 -2 -2 -1 -1 -0 -0 0 0 1 1 0 0 0 1 1 1 0 1 1 1 2 3 3 4 5 6 7 9 10 10 10 9 9 9 9 8 8 8 7 7 7
-1 -1 -1 -1 -0 -0 0 0 0 0 1 1 0 0 0 1 1 1 1 1 1 2 3 3 4 5 6 7 9 10 11 11 11 10 10 10 9 9 8 8 8 8 8
-1 -0 -0 -0 0 0 0 0 0 0 0 0 0 0 0 0 1 1 1 1 2 3 3 4 5 6 7 8 10 11 12 12 12 12 12 11 10 9 8 8 8 8 8
-0 -0 0 0 1 1 1 1 1 1 1 1 1 1 0 1 1 1 2 2 3 3 4 5 6 7 8 9 10 12 13 14 14 14 14 13 11 10 9 9 8 8 8
-0 0 1 1 1 1 1 1 1 1 1 1 1 1 1 1 1 2 2 2 3 3 4 5 6 7 8 9 10 12 13 14 15 15 15 14 12 10 9 9 9 8 8